Location: Goettingen
(51.5300°N, 9.9433°E)
Time: 22:00:17
(UTC+01:00)

ISS - Pass Details

Date: 01 December 2024
Orbit: 411 x 421 km, 51.6° (Epoch: 03 December)

Event Time Altitude Azimuth Distance (km) Brightness Sun altitude
Rises 18:31:03 0° 281° (W) 2,375 1.3 -20.3°
Reaches altitude 10° 18:33:42 10° 259° (W) 1,506 0.3 -20.7°
Maximum altitude 18:35:52 16° 219° (SW) 1,188 -0.9 -21.0°
Drops below altitude 10° 18:38:01 10° 179° (S) 1,500 -0.9 -21.4°
Enters shadow 18:38:27 - 174° (S) 1,620 -0.8 -21.4°
